{"data":{"norad_id":64269,"intl_designator":"2025-120P","name":"STARLINK-34298","alt_names":[],"object_type":"PAYLOAD","status":"ACTIVE","operator":null,"country":"US","launch_date":"2025-06-04","launch_site_code":"AFWTR","launch_vehicle":null,"mission":null,"orbit_class":"UNKNOWN","rcs_meters":null,"size_class":null,"mass_kg":null,"dimensions":null,"purposes":["comms"],"wikipedia_slug":null,"has_3d_model":false,"image_url":null,"decayed_at":null,"tle_current":{"epoch":"2026-05-25T04:47:35.158272Z","epoch_age_seconds":68508,"freshness":"FRESH","line1":"1 64269U 25120P   26145.19971248  .00023053  00000+0  69109-3 0  9996","line2":"2 64269  53.1593 118.9373 0001541  89.2403 270.8776 15.34410818 55567","mean_motion":15.34410818,"eccentricity":0.0001541,"inclination_deg":53.1593,"raan_deg":118.9373,"arg_perigee_deg":89.2403,"mean_anomaly_deg":270.8776,"bstar":0.00069109,"rev_number":5556,"period_min":93.847096429947,"perigee_km":461.61691849401,"apogee_km":463.72525554643,"semimajor_km":6840.8080870202,"source":"CELESTRAK","updated_at":"2026-05-25T13:38:20.359851Z"}}}